Showing default

WEINA 1A, 43169

Orbit data source: Space-Track

WEINA 1A, 43169 is a payload satellite owned by Weina (CN) in LEO that was launched on Thu, 25 Jan 2018 UTC via a CHANG ZHENG 2C launch vehicle from the Xichang Space Center, China (XSC). Payloads include a variety of satellites, spacecraft, and rockets equipped with specific instruments for various scientific and technological missions. These include communications satellites like Starlink; space stations such as the ISS; scientific satellites like the Hubble; Earth observation satellites from companies like Planet Labs, Umbra, and HawkEye 360; GPS; miniature CubeSats for education and research; and military/defense satellites.

Loading next visibility...
WEINA 1A details
Identifier
43169, 2018-011A
Orbit
LEO
Last TLE update14 hours ago
Origin
Flag of CNWeina (CN / PRC)
ManufacturerSECM
MissionOperational Defense Technology
Bus & MotorUnknown
Mass~5 kg wet, ~5 kg dry
Launch date (UTC)
2018-01-25 (7 years ago)
Launch vehicle
CHANG ZHENG 2C
Launch site
Xichang Space Center, China (XSC)
Object type
Payload
Rocket body
Debris
Shape & HBRBox, 0.2 m
Radar Cross Section0.025 m², Medium (>0.1 m² and < 1m²)

Expand to show TLE details & history

TLE from 14 hours ago
0 WEINA 1A
1 43169U 18011A   24361.20971861  .00006133  00000-0  52392-3 0  9991
2 43169  34.9944 183.5206 0003399  20.4646 339.6196 14.97054781377335
Epoch: 2024-12-26T05:01Z
Definitive object data (Epoch: 2024-12-26T05:01:59.687Z)
Latitude-0.00004°
Longitude12.82945°
Altitude572.706 km
Speed7.578 km/s
True Right ascension12h 14m 04s
True Declination0° 00' 00"
Sunlit
Object was in daylight at TLE epoch
Visualization TLE readout
Latitude7.70481°
Longitude178.33873°
Altitude576.067 km
Speed7.574 km/s
Apparent Right ascension01h 50m 52s
Apparent Declination-22° 10' 57"
Sunlit
Object is in daylight
Visualization observer readout
Local Sidereal Time17:57:10
Azimuth90.474° ESE
Elevation-35.475°
Doppler factor1
Orbital elements
Apogee altitude581.581 km
Perigee altitude576.851 km
Semi-major axis6,957.353 km
Eccentricity0.0003399
Inclination34.9944°
RAAN183.5206°
Arg. of periapsis20.4646°
True anomaly339.60603°
Mean anomaly339.6196°
Eccentric anomaly339.61282°
Mean motion3.74005 °/min
BSTAR0.00052392
Orbital period96.26 mins
Loading maneuver chart data...
Loading historical data...
Loading historical data...
Loading historical data...
Loading historical data...
Loading historical data...
Loading historical data...
Loading historical data...
Other satellites on launch #11 in the year 2018 (2018-01-25 UTC)

WEINA 1A Visibility forecast

Observer location: undefined°, undefined

Span
Click to sort rows by Start time (UTC) header in descending order
Start Az.
Max El. time (UTC)
Max El. Az.
Max El.
End time (UTC)
End Az.
7 mins2024-12-26 19:50:39.017Z255.309° W2024-12-26 19:54:39.017Z178.478° S29.215°2024-12-26 19:57:39.017Z129.16° SE
5 mins2024-12-27 16:31:39.017Z211.232° SW2024-12-27 16:33:39.017Z167.523° S27.135°2024-12-27 16:36:39.017Z109.864° ESE
6 mins2024-12-27 18:12:39.017Z240.309° WSW2024-12-27 18:14:39.017Z194.623° SSW33.775°2024-12-27 18:18:39.017Z111.375° ESE
|